sat.trackr.live / text

‹ back to catalog

STARLINK-34149

NORAD 64140 · 2025-111T

PAYLOAD ACTIVE UNKNOWN

§ Identity

Operator
Country
US
Launch date
2025-05-24
Launch site
AFETR
Launch vehicle
Mass (kg)
RCS (m²)

Purposes: comms

External: N2YO · Heavens-Above · Gunter

§ Orbital elements

Epoch: 2026-09-20T17:39:55.698912Z

Period
94.27 min
Inclination
43.0038°
Eccentricity
0.0000658
Mean motion
15.27584054 rev/d
Perigee alt
482.6 km
Apogee alt
483.5 km
Semi-major
6,861.2 km
B*
4.0191e-4
RAAN
56.3109°
Arg perigee
284.5286°
Mean anomaly
75.5493°
Rev number
7,529

§ Raw data

STARLINK-341491 64140U 25111T   26263.73606133  .00010815  00000+0  40191-3 0  99952 64140  43.0038  56.3109 0000658 284.5286  75.5493 15.27584054 75290

JSON: /api/v1/satellites/64140 · /tle

For live sub-satellite position, see the globe view (requires WebGL).

§ Visibility from observer

Set your observer location to see the next 7 days of passes ≥ 10°. The values pass through the URL so the page stays shareable.

No JS? Fill the form by hand. The geolocation button needs JavaScript.